Location: Jackson
(42.2460°N, 84.4010°W)
Time: 11:15:00
(UTC-04:00)

Injun/Solrad 3 - Pass Details

Date: 15 February 2026
Orbit: 871 x 985 km, 66.8° (Epoch: 16 March)

Event Time Altitude Azimuth Distance (km) Brightness Sun altitude
Rises 19:39:10 0° 336° (NNW) 3,558 11.3 -17.0°
Reaches altitude 10° 19:42:14 10° 351° (N) 2,633 10.4 -17.6°
Maximum altitude 19:47:02 23° 43° (NE) 1,879 9.1 -18.5°
Enters shadow 19:47:43 23° 52° (NE) 1,901 9.1 -18.6°
